Regional Weather Roundup
Issued by NWS

Home | Current Version | Previous Version | Text Only | Print | Product List | Glossary Off
Versions: 1 2 3 4 5 6 7 8 9 10 11 12 13 14 15 16 17 18 19 20 21 22 23 24 25 26 27 28 29 30 31 32 33 34 35 36 37 38 39 40 41 42 43 44 45 46 47 48 49 50

000
ASUS45 KCYS 231810
RWRWY

WYOMING REGIONAL WEATHER ROUNDUP
NATIONAL WEATHER SERVICE CHEYENNE WY
1100 AM MST THU FEB 23 2017

NOTE:  "FAIR" INDICATES FEW OR NO CLOUDS BELOW 12,000 FEET
WITH NO SIGNIFICANT WEATHER AND/OR OBSTRUCTIONS TO VISIBILITY.

WYZ001-231900-
YELLOWSTONE NATIONAL PARK

CITY           SKY/WX    TMP DP  RH WIND       PRES   REMARKS
LK YELLOWSTONE   N/A     19   7  59 VRB6      29.66R WCI  11
6HR MIN TEMP:  12; 6HR MAX TEMP:  19;

W YELLOWSTONE  NOT AVBL

$$
WYZ002>013-054>058-071-098>099-231900-
NORTHERN WYOMING

CITY           SKY/WX    TMP DP  RH WIND       PRES   REMARKS
JACKSON        FAIR      25  18  74 N14       29.62R WCI  13
CODY           CLOUDY    24  19  81 N23G31    29.78S WCI   9
GREYBULL       CLOUDY    32  20  61 NW15      29.73R WCI  22
6HR MIN TEMP:  30; 6HR MAX TEMP:  32;

WORLAND        LGT SNOW  28  24  85 NW17      29.74R FOG     WCI  16
6HR MIN TEMP:  28; 6HR MAX TEMP:  30; 6HR PCP: TRACE;

SHERIDAN       CLOUDY    27  24  89 NE7       29.88R WCI  19
6HR MIN TEMP:  27; 6HR MAX TEMP:  29; 6HR PCP:  0.01;

BUFFALO        LGT SNOW  26  21  81 N16       29.82S WCI  14
6HR MIN TEMP:  26; 6HR MAX TEMP:  27; 6HR PCP:  0.01;

GILLETTE       CLOUDY    27  24  89 NE17      29.81R WCI  14
6HR MIN TEMP:  26; 6HR MAX TEMP:  28;

HULETT         LGT SNOW  27  25  93 MISG      29.84R
NEWCASTLE      LGT SNOW  30  27  86 SW6       29.77R WCI  24

$$
WYZ014>020-022>026-101>103-231900-
CENTRAL WYOMING

CITY           SKY/WX    TMP DP  RH WIND       PRES   REMARKS
BIG PINEY      CLOUDY    23  17  78 N20G28    29.57R WCI   8
6HR MIN TEMP:  20; 6HR MAX TEMP:  23; 6HR PCP: TRACE;

PINEDALE       MOCLDY    23  16  74 NW13      29.57R WCI  11
DUBOIS         LGT SNOW  23  19  86 SE8       29.60R VSB 1   WCI  14
LANDER         FOG       24  22  91 N15       29.66S VSB 1/2 WCI  11
6HR MIN TEMP:  24; 6HR MAX TEMP:  26; 6HR PCP:  0.24;

RIVERTON       HVY SNOW  23  21  92 N23G30    29.67R VSB 1/4 WCI   7
6HR MIN TEMP:  23; 6HR MAX TEMP:  27; 6HR PCP:  0.26;

CASPER         SNOW      22  20  92 E24       29.67R VSB 1/2 WCI   5
6HR MIN TEMP:  23; 6HR MAX TEMP:  24; 6HR PCP:  0.19;

DOUGLAS        SNOW      23  20  88 E10       29.74S VSB 1/4 WCI  12
6HR MIN TEMP:  22; 6HR MAX TEMP:  25; 6HR PCP: TRACE;


$$
WYZ021-027>030-104>119-231900-
SOUTHERN WYOMING

CITY           SKY/WX    TMP DP  RH WIND       PRES   REMARKS
EVANSTON       LGT SNOW  20  16  84 SW13      29.63R FOG     WCI   7
6HR MIN TEMP:  16; 6HR MAX TEMP:  20; 6HR PCP: TRACE;

FORT BRIDGER   CLOUDY    23  20  90 W22       29.64R FOG     WCI   7
ROCK SPRINGS   SNOW      21  17  84 NE25G37   29.53F VSB 1/4 WCI   4
6HR MIN TEMP:  21; 6HR MAX TEMP:  25; 6HR PCP:  0.15;

DIXON          FLURRIES  25  19  80 SW15G24   29.58R WCI  12
RAWLINS        CLOUDY    24  16  71 SE17      29.51R WCI  11
6HR MIN TEMP:  21; 6HR MAX TEMP:  25; 6HR PCP:  0.11;

SARATOGA       CLOUDY    27  16  63 SW8       29.51R WCI  18
LARAMIE        CLOUDY    21  14  74 E23G31    29.48F WCI   5
6HR MIN TEMP:  21; 6HR MAX TEMP:  26; 6HR PCP: TRACE;

CHEYENNE       SNOW      22  18  85 NE15G24   29.57S VSB 1/2 WCI   9
6HR MIN TEMP:  23; 6HR MAX TEMP:  27; 6HR PCP:  0.35;

TORRINGTON     SNOW      24  21  88 NE20      29.71R VSB 1/4 WCI  10
6HR MIN TEMP:  24; 6HR MAX TEMP:  28; 6HR PCP: TRACE;

PINE BLUFFS    RAIN      27  25  93 NE17G31   29.60R WCI  14

$$



USA.gov is the U.S. government's official web portal to all federal, state and local government web resources and services.